Location: Lincoln
(40.8000°N, 96.6670°W)
Time: 22:05:02
(UTC-06:00)

BlueWalker 3 - Visible Passes

Search period start: 02 February 2023 00:00
Search period end: 12 February 2023 00:00
Orbit: 499 x 517 km, 53.2° (Epoch: 02 February)

Date Brightness Start Highest point End Pass type
(mag) Time Alt. Az. Time Alt. Az. Time Alt. Az.
02 Feb 4.3 19:07:08 10° NNW 19:09:04 13° N 19:10:21 12° NNE visible
03 Feb 4.3 18:48:14 10° NNW 18:50:08 13° N 18:52:03 10° NNE visible
04 Feb 4.3 18:29:19 10° NNW 18:31:13 13° N 18:33:07 10° NNE visible
04 Feb 4.5 20:08:04 10° NNW 20:08:53 14° NNW 20:08:53 14° NNW visible
05 Feb 4.1 19:49:05 10° NNW 19:50:47 18° N 19:50:47 18° N visible
06 Feb 3.6 19:30:05 10° NNW 19:32:44 21° NNE 19:32:44 21° NNE visible
07 Feb 3.4 19:11:05 10° NNW 19:14:11 22° NNE 19:14:43 21° NE visible
07 Feb 5.1 20:49:17 10° NW 20:49:32 12° NW 20:49:32 12° NW visible
08 Feb 3.4 18:52:04 10° NNW 18:55:12 23° NNE 18:56:48 18° ENE visible
08 Feb 4.4 20:30:17 10° NW 20:31:37 20° NW 20:31:37 20° NW visible
09 Feb 3.4 18:33:03 10° NNW 18:36:14 23° NNE 18:38:58 12° ENE visible
09 Feb 3.3 20:11:17 10° NW 20:13:47 37° WNW 20:13:47 37° WNW visible
10 Feb 2.1 19:52:17 10° NW 19:56:05 68° SW 19:56:05 68° SW visible
11 Feb 2.3 19:33:16 10° WNW 19:37:07 64° SW 19:38:33 35° SSE visible
